Nassau, Bahamas

12:45 PM EDT on April 19, 2018 (GMT -0400)
Nassau International

Weather History for MYNN - May, 2013

Change the Weather History Date:

Sunday, May 19, 2013

  Actual Average Record
Temperature  
Mean Temperature 80 °F -  
Max Temperature 87 °F 86 °F 91 °F (2008)
Min Temperature 72 °F 72 °F 64 °F (1998)
Cooling Degree Days 14    
Growing Degree Days 30 (Base 50)    
Moisture  
Dew Point 71 °F    
Average Humidity 75    
Maximum Humidity 89    
Minimum Humidity 56    
Precipitation  
Precipitation 0.00 in 0.25 in - ()
Sea Level Pressure  
Sea Level Pressure 30.06 in    
Wind  
Wind Speed 5 mph ()    
Max Wind Speed 12 mph    
Max Gust Speed -    
Visibility 7.0 miles    
Events      
Averages and records for this station are not official NWS values.
T = Trace of Precipitation, MM = Missing Value Source: Averaged Metar Reports

Daily Weather History Graph

Daily Weather History Graph

Search for Another Location

Airport or City:

Astronomy

May. 19, 2013 Rise Set
Actual Time 6:23 AM EDT 7:49 PM EDT
Civil Twilight 5:58 AM EDT 8:14 PM EDT
Nautical Twilight 5:28 AM EDT 8:44 PM EDT
Astronomical Twilight 4:58 AM EDT 9:15 PM EDT
Moon 2:25 PM EDT 2:08 AM EDT
Length of Visible Light 14h 15m
Length of Day
13h 25m
Waxing Gibbous, 65% of the Moon is Illuminated
May 19
Waxing Gibbous
May 25
Full
May 31
Last Quarter
Jun 8
New
Jun 16
First Quarter

Hourly Weather History & Observations

Time (EDT) Temp. Heat Index Dew Point Humidity Pressure Visibility Wind Dir Wind Speed Gust Speed Precip Events Conditions
12:00 AM 75.2 °F - 68.0 °F 78% 30.09 in 6.2 mi NE 3.5 mph - N/A   Partly Cloudy
1:00 AM 75.2 °F - 68.0 °F 78% 30.07 in 6.2 mi East 3.5 mph - N/A   Partly Cloudy
2:00 AM 75 °F - 72 °F 87% 30.06 in 9 mi East 3.5 mph - -   Scattered Clouds
2:00 AM 75.2 °F - 71.6 °F 89% 30.05 in 6.2 mi East 3.5 mph - N/A   Partly Cloudy
3:00 AM 75.2 °F - 69.8 °F 83% 30.05 in 6.2 mi East 3.5 mph - N/A   Partly Cloudy
4:00 AM 75.2 °F - 69.8 °F 83% 30.04 in 6.2 mi East 2.3 mph - N/A   Partly Cloudy
5:00 AM 74 °F - 71 °F 88% 30.04 in 9 mi Calm Calm - -   Scattered Clouds
5:00 AM 75.2 °F - 71.6 °F 89% 30.04 in 6.2 mi Calm Calm - N/A   Partly Cloudy
6:00 AM 73.4 °F - 69.8 °F 88% 30.05 in 6.2 mi Calm Calm - N/A   Partly Cloudy
7:00 AM 73.4 °F - 69.8 °F 88% 30.06 in 6.2 mi ESE 1.2 mph - N/A   Partly Cloudy
8:00 AM 77 °F - 72 °F 80% 30.07 in 9 mi East 4.6 mph - -   Partly Cloudy
8:00 AM 77.0 °F - 71.6 °F 83% 30.07 in 6.2 mi East 4.6 mph - N/A   Scattered Clouds
9:00 AM 80.6 °F 83.9 °F 69.8 °F 70% 30.09 in 6.2 mi East 10.4 mph - N/A   Scattered Clouds
10:00 AM 80.6 °F 83.9 °F 69.8 °F 70% 30.09 in 6.2 mi East 10.4 mph - N/A   Scattered Clouds
11:00 AM 82 °F - 72 °F 66% 30.10 in 9 mi East 8.1 mph - -   Partly Cloudy
11:00 AM 82.4 °F 87.2 °F 71.6 °F 70% 30.10 in 6.2 mi East 8.1 mph - N/A   Scattered Clouds
12:00 PM 82.4 °F 86.3 °F 69.8 °F 66% 30.11 in 6.2 mi East 10.4 mph - N/A   Scattered Clouds
1:00 PM 84.2 °F 89.6 °F 71.6 °F 66% 30.09 in 6.2 mi East 11.5 mph - N/A   Scattered Clouds
2:00 PM 85 °F - 73 °F 59% 30.09 in 9 mi East 10.4 mph - -   Partly Cloudy
2:00 PM 86.0 °F 93.4 °F 73.4 °F 66% 30.08 in 6.2 mi East 10.4 mph - N/A   Scattered Clouds
3:00 PM 84.2 °F 89.6 °F 71.6 °F 66% 30.06 in 6.2 mi ESE 11.5 mph - N/A   Scattered Clouds
4:00 PM 82.4 °F 87.2 °F 71.6 °F 70% 30.04 in 6.2 mi SE 11.5 mph - N/A   Scattered Clouds
5:00 PM 85 °F - 72 °F 56% 30.03 in 12 mi SE 11.5 mph - -   Partly Cloudy
5:00 PM 84.2 °F 89.6 °F 71.6 °F 66% 30.03 in 6.2 mi SE 11.5 mph - N/A   Scattered Clouds
6:00 PM 82.4 °F 87.2 °F 71.6 °F 70% 30.03 in 6.2 mi SE 9.2 mph - N/A   Scattered Clouds
7:00 PM 80.6 °F 83.9 °F 69.8 °F 70% 30.03 in 6.2 mi SE 11.5 mph - N/A   Scattered Clouds
8:00 PM 80 °F - 73 °F 73% 30.04 in 12 mi SE 9.2 mph - -   Partly Cloudy
8:00 PM 80.6 °F 85.4 °F 73.4 °F 79% 30.04 in 6.2 mi SE 9.2 mph - N/A   Scattered Clouds
9:00 PM 78.8 °F - 69.8 °F 74% 30.07 in 6.2 mi ESE 9.2 mph - N/A   Partly Cloudy
10:00 PM 78.8 °F - 69.8 °F 74% 30.09 in 6.2 mi ESE 9.2 mph - N/A   Partly Cloudy
11:00 PM 78.8 °F - 71.6 °F 78% 30.09 in 6.2 mi ESE 8.1 mph - N/A   Partly Cloudy